sat.trackr.live / text

‹ back to catalog

STARLINK-6058

NORAD 56797 · 2023-078AG

PAYLOAD ACTIVE UNKNOWN

§ Identity

Operator
Country
US
Launch date
2023-05-31
Launch site
AFWTR
Launch vehicle
Mass (kg)
RCS (m²)

Purposes: comms

External: N2YO · Heavens-Above · Gunter

§ Orbital elements

Epoch: 2026-05-25T02:45:42.593184Z

Period
96.11 min
Inclination
69.9984°
Eccentricity
0.0003959
Mean motion
14.98340582 rev/d
Perigee alt
569.3 km
Apogee alt
574.8 km
Semi-major
6,950.2 km
B*
4.6044e-5
RAAN
151.9289°
Arg perigee
267.4322°
Mean anomaly
92.6384°
Rev number
16,412

§ Raw data

STARLINK-60581 56797U 23078AG  26145.11507631  .00000456  00000+0  46044-4 0  99922 56797  69.9984 151.9289 0003959 267.4322  92.6384 14.98340582164128

JSON: /api/v1/satellites/56797 · /tle

For live sub-satellite position, see the globe view (requires WebGL).

§ Visibility from observer

Set your observer location to see the next 7 days of passes ≥ 10°. The values pass through the URL so the page stays shareable.

No JS? Fill the form by hand. The geolocation button needs JavaScript.